Covington, KY

11:01 PM EDT on April 29, 2017 (GMT -0400)
Cincinnati-Northern KY International

Weather History for KCVG - April, 2015

Change the Weather History Date:

Friday, April 17, 2015

  Actual Average Record
Temperature  
Mean Temperature 66 °F 55 °F  
Max Temperature 76 °F 65 °F 87 °F (1896)
Min Temperature 56 °F 44 °F 19 °F (1875)
Degree Days  
Heating Degree Days 0 11  
Month to date heating degree days 118 227  
Since 1 July heating degree days 5050 4720  
Cooling Degree Days 1 1  
Month to date cooling degree days 5 5  
Year to date cooling degree days 5 5  
Growing Degree Days 16 (Base 50)    
Moisture  
Dew Point 54 °F    
Average Humidity 66    
Maximum Humidity 93    
Minimum Humidity 38    
Precipitation  
Precipitation 0.02 in 0.13 in 1.31 in (1933)
Month to date precipitation 3.43 2.14  
Year to date precipitation 13.90 11.91  
Snow  
Snow 0.00 in 0.00 in 0.50 in (2001)
Month to date snowfall 0.0 0.4  
Since 1 July snowfall 29.9 22.0  
Snow Depth 0.00 in    
Sea Level Pressure  
Sea Level Pressure 30.06 in    
Wind  
Wind Speed 3 mph (NW)    
Max Wind Speed 9 mph    
Max Gust Speed 31 mph    
Visibility 8 miles    
Events Fog , Rain    
T = Trace of Precipitation, MM = Missing Value Source: NWS Daily Summary

Daily Weather History Graph

Daily Weather History Graph

Search for Another Location

Airport or City:

Trip Planner

Search our weather history database for the weather conditions in past years. The results will help you decide how hot, cold, wet, or windy it might be!

Date:

Astronomy

Apr. 17, 2015 Rise Set
Actual Time 6:59 AM EDT 8:17 PM EDT
Civil Twilight 6:31 AM EDT 8:45 PM EDT
Nautical Twilight 5:58 AM EDT 9:18 PM EDT
Astronomical Twilight 5:23 AM EDT 9:53 PM EDT
Moon 6:17 AM EDT (4/17) 7:14 PM EDT (4/17)
Length of Visible Light 14h 13m
Length of Day
13h 18m
Waning Crescent, 2% of the Moon is Illuminated
Apr 17
Waning Crescent
Apr 18
New
Apr 25
First Quarter
May 3
Full
May 11
Last Quarter

Hourly Weather History & Observations

Time (EDT) Temp. Dew Point Humidity Pressure Visibility Wind Dir Wind Speed Gust Speed Precip Events Conditions
12:52 AM 62.1 °F 60.1 °F 93% 30.07 in 10.0 mi South 3.5 mph - 0.02 in   Overcast
1:27 AM 62.6 °F 60.8 °F 94% 30.08 in 7.0 mi Calm Calm - 0.00 in Rain Light Rain
1:52 AM 63.0 °F 60.1 °F 90% 30.06 in 10.0 mi Calm Calm - 0.02 in   Overcast
2:52 AM 62.1 °F 60.1 °F 93% 30.06 in 10.0 mi SW 4.6 mph - N/A   Overcast
3:44 AM 62.6 °F 60.8 °F 94% 30.08 in 8.0 mi West 3.5 mph - N/A   Overcast
3:52 AM 62.1 °F 61.0 °F 96% 30.07 in 7.0 mi WSW 3.5 mph - N/A   Overcast
4:17 AM 62.6 °F 60.8 °F 94% 30.09 in 8.0 mi WNW 5.8 mph - N/A   Overcast
4:46 AM 62.6 °F 60.8 °F 94% 30.09 in 6.0 mi NNW 6.9 mph - N/A   Overcast
4:52 AM 62.1 °F 60.1 °F 93% 30.06 in 6.0 mi NNW 6.9 mph - N/A   Overcast
5:02 AM 60.8 °F 60.8 °F 100% 30.08 in 5.0 mi NW 5.8 mph - N/A   Mostly Cloudy
5:21 AM 60.8 °F 60.8 °F 100% 30.09 in 5.0 mi NNW 4.6 mph - N/A   Overcast
5:52 AM 61.0 °F 57.9 °F 90% 30.07 in 7.0 mi NNW 4.6 mph - N/A   Overcast
6:25 AM 60.8 °F 57.2 °F 88% 30.09 in 7.0 mi NNW 8.1 mph - N/A   Scattered Clouds
6:52 AM 59.0 °F 55.9 °F 90% 30.09 in 6.0 mi NNW 6.9 mph - N/A   Scattered Clouds
7:52 AM 59.0 °F 57.0 °F 93% 30.10 in 4.0 mi Calm Calm - N/A Fog Mostly Cloudy
8:52 AM 62.1 °F 55.9 °F 80% 30.10 in 6.0 mi Calm Calm - N/A   Haze
9:52 AM 64.0 °F 54.0 °F 70% 30.10 in 8.0 mi NNE 4.6 mph - N/A   Mostly Cloudy
10:52 AM 64.9 °F 53.1 °F 65% 30.12 in 10.0 mi North 4.6 mph - N/A   Mostly Cloudy
11:52 AM 66.0 °F 52.0 °F 60% 30.11 in 10.0 mi North 4.6 mph - N/A   Mostly Cloudy
12:52 PM 69.1 °F 52.0 °F 54% 30.10 in 10.0 mi North 3.5 mph - N/A   Mostly Cloudy
1:52 PM 71.1 °F 51.1 °F 49% 30.07 in 10.0 mi Calm Calm - N/A   Mostly Cloudy
2:52 PM 72.0 °F 50.0 °F 46% 30.05 in 10.0 mi NW 5.8 mph - N/A   Mostly Cloudy
3:52 PM 73.9 °F 48.0 °F 40% 30.03 in 10.0 mi West 4.6 mph - N/A   Mostly Cloudy
4:52 PM 75.0 °F 48.0 °F 38% 30.01 in 10.0 mi NW 3.5 mph - N/A   Mostly Cloudy
5:52 PM 73.9 °F 48.0 °F 40% 30.00 in 10.0 mi North 4.6 mph - N/A   Overcast
6:52 PM 73.9 °F 46.9 °F 38% 30.00 in 10.0 mi WNW 3.5 mph - N/A   Mostly Cloudy
7:52 PM 71.1 °F 46.9 °F 42% 30.00 in 10.0 mi North 4.6 mph - N/A   Mostly Cloudy
8:52 PM 68.0 °F 46.0 °F 45% 30.01 in 10.0 mi Calm Calm - N/A   Mostly Cloudy
9:52 PM 63.0 °F 46.9 °F 56% 30.03 in 10.0 mi Calm Calm - N/A   Overcast
10:52 PM 62.1 °F 48.0 °F 60% 30.02 in 10.0 mi Calm Calm - N/A   Mostly Cloudy
11:52 PM 59.0 °F 46.0 °F 62% 30.03 in 10.0 mi Calm Calm - N/A   Scattered Clouds